Tracking 30970 objects as of 3-Jul-2025
HD Live streaming from Space Station
objects crossing your sky now

STARLINK-3077

Track STARLINK-3077 now!
10-day predictions
STARLINK-3077 is classified as:


NORAD ID: 49133
Int'l Code: 2021-082D
Perigee: 576.7 km
Apogee: 581.7 km
Inclination: 70.0 °
Period: 96.1 minutes
Semi major axis: 6950 km
RCS: Unknown
Launch date: September 14, 2021
Source: United States (US)
Launch site: AIR FORCE WESTERN TEST RANGE (AFWTR)
Your satellite tracking list
FENGYUN 1C DEB
Track 1 satellite(s)




NASA's NSSDC Master Catalog

Two Line Element Set (TLE):
1 49133U 21082D   25183.77297585 -.00000012  00000-0  68351-5 0  9994
2 49133  69.9990 204.5810 0003608 267.6095  92.4651 14.98332801208541
Source of the keplerian elements: AFSPC